This demonstration page uses our WeatherBlox Daily Observations layout. Learn more.

Left ArrowRight Arrow

53.62937, 11.41316

Hourly Observations for June 23, 2017

Temp ( °F °C ) Dew Point ( °F °C ) Humidity (%) Winds ( mph kmh ) Pressure ( in mb ) Visibility ( mi km ) Precip ( " mm )
6:20 am 06:20 Mostly Cloudy with Light Rain 63 17 61 16 94 94 W 12 19 29.71 1006 3 5 N/A
6:50 am 06:50 Mostly Cloudy 63 17 61 16 94 94 W 15 24 29.71 1006 30 48 N/A
7:20 am 07:20 Mostly Cloudy 63 17 61 16 94 94 WSW 16 26 29.74 1007 30 48 N/A
7:40 am 07:40 Mostly Cloudy 63 17 59 15 88 88 W 17 28 29.74 1007 30 48 N/A
7:50 am 07:50 Mostly Cloudy 63 17 59 15 88 88 WSW 17 28 29.74 1007 30 48 N/A
8:20 am 08:20 Mostly Cloudy 63 17 59 15 88 88 WSW 16 26 29.74 1007 30 48 N/A
8:50 am 08:50 Cloudy 63 17 59 15 88 88 WSW 18 30 29.77 1008 30 48 N/A
8:59 am 08:59 Cloudy 63 17 59 15 88 88 W 18 30 29.77 1008 30 48 N/A
9:20 am 09:20 Cloudy 63 17 59 15 88 88 W 17 28 29.77 1008 30 48 N/A
9:50 am 09:50 Cloudy 63 17 59 15 88 88 WSW 16 26 29.77 1008 30 48 N/A
10:20 am 10:20 Cloudy 63 17 59 15 88 88 W 17 28 29.80 1009 30 48 N/A
10:50 am 10:50 Cloudy 61 16 59 15 94 94 W 16 26 29.80 1009 6 9 N/A
11:20 am 11:20 Cloudy 61 16 59 15 94 94 WSW 17 28 29.80 1009 30 48 N/A
11:50 am 11:50 Cloudy 63 17 59 15 88 88 W 17 28 29.80 1009 30 48 N/A
12:20 pm 12:20 Cloudy 63 17 59 15 88 88 W 16 26 29.83 1010 30 48 N/A
12:50 pm 12:50 Cloudy 63 17 59 15 88 88 W 18 30 29.83 1010 30 48 N/A
12:55 pm 12:55 Cloudy 63 17 59 15 88 88 W 17 28 29.83 1010 30 48 N/A
1:20 pm 13:20 Cloudy 63 17 59 15 88 88 W 17 28 29.85 1011 30 48 N/A
1:50 pm 13:50 Cloudy 63 17 59 15 88 88 W 15 24 29.85 1011 30 48 N/A
2:20 pm 14:20 Cloudy 64 18 59 15 83 83 W 17 28 29.85 1011 30 48 N/A
2:50 pm 14:50 Cloudy 68 20 59 15 73 73 W 14 22 29.85 1011 30 48 N/A
3:20 pm 15:20 Mostly Cloudy 70 21 59 15 69 69 W 16 26 29.85 1011 30 48 N/A
3:50 pm 15:50 Mostly Cloudy 70 21 57 14 64 64 W 17 28 29.85 1011 30 48 N/A
4:13 pm 16:13 Mostly Sunny 70 21 57 14 64 64 W 16 26 29.85 1011 7 11 N/A
4:50 pm 16:50 Mostly Cloudy 70 21 57 14 64 64 W 14 22 29.85 1011 30 48 N/A
5:20 pm 17:20 Mostly Cloudy 70 21 57 14 64 64 W 16 26 29.85 1011 30 48 N/A
5:50 pm 17:50 Mostly Sunny 70 21 57 14 64 64 W 14 22 29.88 1012 7 11 N/A

Powered by AerisWeather